Location: Bennemühlen
(52.5740°N, 9.7135°E)
Time: 20:21:45
(UTC+00:00)

Cosmos 1953 - Pass Details

Date: 19 May 2025
Orbit: 485 x 501 km, 82.5° (Epoch: 20 June)

Event Time Altitude Azimuth Distance (km) Brightness Sun altitude
Rises 23:52:37 0° 359° (N) 2,572 7.4 -17.0°
Reaches altitude 10° 23:55:07 10° 16° (NNE) 1,686 6.1 -17.0°
Maximum altitude 23:58:00 21° 67° (ENE) 1,147 4.3 -16.9°
Drops below altitude 10° 00:00:51 10° 118° (ESE) 1,681 4.6 -16.8°
Enters shadow 00:01:10 - 121° (ESE) 1,781 4.7 -16.8°
